Pinedale, WY

10:40 PM MDT on June 26, 2017 (GMT -0600)
Wenz

Weather History for KPNA - November, 2012

Change the Weather History Date:

Wednesday, November 7, 2012

  Actual Average (KBPI) Record (KBPI)
Temperature  
Mean Temperature 36 °F -  
Max Temperature 55 °F 39 °F 64 °F (2006)
Min Temperature 17 °F 11 °F -14 °F (2003)
Degree Days  
Heating Degree Days 29    
Moisture  
Dew Point 23 °F    
Average Humidity 68    
Maximum Humidity 100    
Minimum Humidity 33    
Precipitation  
Precipitation 0.00 in - - ()
Sea Level Pressure  
Sea Level Pressure 30.13 in    
Wind  
Wind Speed 5 mph (WNW)    
Max Wind Speed 8 mph    
Max Gust Speed -    
Visibility 10 miles    
Events      
Averages and records for this station are not official NWS values.
T = Trace of Precipitation, MM = Missing Value Source: NWS Daily Summary

Daily Weather History Graph

Daily Weather History Graph

Search for Another Location

Airport or City:

Trip Planner

Search our weather history database for the weather conditions in past years. The results will help you decide how hot, cold, wet, or windy it might be!

Date:

Astronomy

Nov. 07, 2012 Rise Set
Actual Time 7:01 AM MST 5:03 PM MST
Civil Twilight 6:31 AM MST 5:33 PM MST
Nautical Twilight 5:58 AM MST 6:07 PM MST
Astronomical Twilight 5:24 AM MST 6:40 PM MST
Moon No Moon Rise 1:23 PM MST (11/7)
Length of Visible Light 11h 01m
Length of Day
10h 01m
Last Quarter, 42% of the Moon is Illuminated
Nov 7
Last Quarter
Nov 13
New
Nov 20
First Quarter
Nov 28
Full
Dec 6
Last Quarter

Hourly Weather History & Observations

Time (MST) Temp. Windchill Dew Point Humidity Pressure Visibility Wind Dir Wind Speed Gust Speed Precip Events Conditions
12:15 AM 23.0 °F 14.7 °F 23.0 °F 100% 30.27 in 10.0 mi WNW 6.9 mph - N/A   Scattered Clouds
12:35 AM 24.8 °F 16.9 °F 23.0 °F 93% 30.27 in 10.0 mi WNW 6.9 mph - N/A   Scattered Clouds
12:55 AM 23.0 °F 14.7 °F 23.0 °F 100% 30.27 in 10.0 mi WNW 6.9 mph - N/A   Scattered Clouds
1:15 AM 23.0 °F 13.9 °F 21.2 °F 93% 30.27 in 10.0 mi West 8.1 mph - N/A   Mostly Cloudy
1:35 AM 23.0 °F 13.9 °F 21.2 °F 93% 30.26 in 10.0 mi West 8.1 mph - N/A   Overcast
1:55 AM 23.0 °F 15.8 °F 21.2 °F 93% 30.26 in 10.0 mi West 5.8 mph - N/A   Mostly Cloudy
2:15 AM 21.2 °F 11.7 °F 21.2 °F 100% 30.25 in 10.0 mi WNW 8.1 mph - N/A   Scattered Clouds
2:35 AM 21.2 °F 12.6 °F 21.2 °F 100% 30.25 in 10.0 mi West 6.9 mph - N/A   Scattered Clouds
2:55 AM 23.0 °F 14.7 °F 21.2 °F 93% 30.24 in 10.0 mi West 6.9 mph - N/A   Scattered Clouds
3:15 AM 21.2 °F 12.6 °F 21.2 °F 100% 30.23 in 10.0 mi West 6.9 mph - N/A   Scattered Clouds
3:35 AM 21.2 °F 13.6 °F 21.2 °F 100% 30.22 in 10.0 mi West 5.8 mph - N/A   Scattered Clouds
3:55 AM 21.2 °F 11.7 °F 21.2 °F 100% 30.22 in 10.0 mi WNW 8.1 mph - N/A   Scattered Clouds
4:15 AM 21.2 °F 14.9 °F 19.4 °F 93% 30.22 in 10.0 mi West 4.6 mph - N/A   Mostly Cloudy
4:35 AM 21.2 °F 11.7 °F 19.4 °F 93% 30.22 in 10.0 mi NW 8.1 mph - N/A   Scattered Clouds
5:15 AM 19.4 °F 14.3 °F 19.4 °F 100% 30.21 in 10.0 mi West 3.5 mph - N/A   Scattered Clouds
5:35 AM 19.4 °F 11.5 °F 19.4 °F 100% 30.21 in 10.0 mi WNW 5.8 mph - N/A   Scattered Clouds
5:55 AM 19.4 °F 10.4 °F 19.4 °F 100% 30.21 in 10.0 mi WNW 6.9 mph - N/A   Scattered Clouds
6:15 AM 19.4 °F 12.8 °F 17.6 °F 93% 30.21 in 10.0 mi WNW 4.6 mph - N/A   Scattered Clouds
6:35 AM 19.4 °F 11.5 °F 17.6 °F 93% 30.21 in 10.0 mi NW 5.8 mph - N/A   Scattered Clouds
6:55 AM 17.6 °F 9.3 °F 17.6 °F 100% 30.20 in 10.0 mi NW 5.8 mph - N/A   Clear
7:15 AM 19.4 °F 14.3 °F 17.6 °F 93% 30.21 in 10.0 mi WNW 3.5 mph - N/A   Clear
7:35 AM 21.2 °F 16.4 °F 19.4 °F 93% 30.21 in 10.0 mi West 3.5 mph - N/A   Clear
7:55 AM 23.0 °F 18.4 °F 21.2 °F 93% 30.21 in 10.0 mi West 3.5 mph - N/A   Clear
8:15 AM 26.6 °F 20.0 °F 23.0 °F 86% 30.21 in 10.0 mi West 5.8 mph - N/A   Clear
8:35 AM 28.4 °F 23.3 °F 24.8 °F 86% 30.21 in 10.0 mi WNW 4.6 mph - N/A   Clear
8:55 AM 30.2 °F - 26.6 °F 86% 30.20 in 10.0 mi Calm Calm - N/A   Clear
9:15 AM 33.8 °F 30.8 °F 26.6 °F 75% 30.20 in 10.0 mi WNW 3.5 mph - N/A   Clear
9:35 AM 35.6 °F - 28.4 °F 75% 30.19 in 10.0 mi Calm Calm - N/A   Clear
9:55 AM 39.2 °F - 26.6 °F 61% 30.18 in 10.0 mi Calm Calm - N/A   Clear
10:15 AM 42.8 °F 41.1 °F 28.4 °F 57% 30.18 in 10.0 mi ESE 3.5 mph - N/A   Clear
10:35 AM 44.6 °F 41.4 °F 28.4 °F 53% 30.17 in 10.0 mi ESE 5.8 mph - N/A   Clear
10:55 AM 46.4 °F 43.5 °F 28.4 °F 50% 30.16 in 10.0 mi ESE 5.8 mph - N/A   Clear
11:15 AM 46.4 °F 43.5 °F 28.4 °F 50% 30.14 in 10.0 mi SE 5.8 mph - N/A   Clear
11:35 AM 48.2 °F - 28.4 °F 46% 30.13 in 10.0 mi ESE 6.9 mph - N/A   Clear
11:55 AM 50.0 °F - 26.6 °F 40% 30.13 in 10.0 mi SSE 3.5 mph - N/A   Clear
12:15 PM 50.0 °F - 26.6 °F 40% 30.11 in 10.0 mi SSE 3.5 mph - N/A   Clear
12:35 PM 51.8 °F - 26.6 °F 38% 30.09 in 10.0 mi Calm Calm - N/A   Clear
12:55 PM 51.8 °F - 26.6 °F 38% 30.09 in 10.0 mi SSE 3.5 mph - N/A   Clear
1:15 PM 53.6 °F - 26.6 °F 35% 30.08 in 10.0 mi SE 4.6 mph - N/A   Clear
1:35 PM 53.6 °F - 26.6 °F 35% 30.07 in 10.0 mi SSE 4.6 mph - N/A   Clear
1:55 PM 53.6 °F - 26.6 °F 35% 30.06 in 10.0 mi South 6.9 mph - N/A   Clear
2:15 PM 53.6 °F - 26.6 °F 35% 30.06 in 10.0 mi SE 3.5 mph - N/A   Clear
2:35 PM 55.4 °F - 26.6 °F 33% 30.05 in 10.0 mi ESE 4.6 mph - N/A   Clear
2:55 PM 55.4 °F - 26.6 °F 33% 30.05 in 10.0 mi East 3.5 mph - N/A   Clear
3:15 PM 55.4 °F - 26.6 °F 33% 30.04 in 10.0 mi ENE 3.5 mph - N/A   Clear
3:35 PM 55.4 °F - 26.6 °F 33% 30.03 in 10.0 mi ENE 3.5 mph - N/A   Clear
3:55 PM 55.4 °F - 26.6 °F 33% 30.03 in 10.0 mi ENE 3.5 mph - N/A   Clear
4:15 PM 55.4 °F - 26.6 °F 33% 30.03 in 10.0 mi NE 3.5 mph - N/A   Scattered Clouds
4:35 PM 53.6 °F - 26.6 °F 35% 30.03 in 10.0 mi Calm Calm - N/A   Mostly Cloudy
4:55 PM 50.0 °F - 24.8 °F 37% 30.03 in 10.0 mi Calm Calm - N/A   Scattered Clouds
5:15 PM 46.4 °F 43.5 °F 24.8 °F 43% 30.03 in 10.0 mi WSW 5.8 mph - N/A   Clear
5:35 PM 44.6 °F 41.4 °F 23.0 °F 43% 30.03 in 10.0 mi WNW 5.8 mph - N/A   Mostly Cloudy
5:55 PM 42.8 °F 40.1 °F 23.0 °F 46% 30.03 in 10.0 mi West 4.6 mph - N/A   Scattered Clouds
6:15 PM 42.8 °F 39.3 °F 23.0 °F 46% 30.05 in 10.0 mi West 5.8 mph - N/A   Clear
6:35 PM 42.8 °F 38.6 °F 23.0 °F 46% 30.05 in 10.0 mi WNW 6.9 mph - N/A   Clear
6:55 PM 37.4 °F 32.1 °F 23.0 °F 56% 30.05 in 10.0 mi WNW 6.9 mph - N/A   Clear
7:15 PM 35.6 °F 29.9 °F 23.0 °F 60% 30.05 in 10.0 mi WNW 6.9 mph - N/A   Clear
7:35 PM 33.8 °F 27.7 °F 23.0 °F 65% 30.05 in 10.0 mi WNW 6.9 mph - N/A   Mostly Cloudy
7:55 PM 32.0 °F 26.4 °F 23.0 °F 69% 30.05 in 10.0 mi WNW 5.8 mph - N/A   Mostly Cloudy
8:15 PM 32.0 °F 28.7 °F 23.0 °F 69% 30.05 in 10.0 mi North 3.5 mph - N/A   Mostly Cloudy
8:35 PM 33.8 °F - 23.0 °F 65% 30.05 in 10.0 mi Calm Calm - N/A   Scattered Clouds
8:55 PM 32.0 °F - 21.2 °F 64% 30.05 in 10.0 mi Calm Calm - N/A   Mostly Cloudy
9:15 PM 32.0 °F - 23.0 °F 69% 30.05 in 10.0 mi Calm Calm - N/A   Mostly Cloudy
9:35 PM 30.2 °F 25.4 °F 23.0 °F 75% 30.05 in 10.0 mi NE 4.6 mph - N/A   Mostly Cloudy
9:55 PM 30.2 °F - 23.0 °F 75% 30.05 in 10.0 mi Calm Calm - N/A   Scattered Clouds
10:15 PM 28.4 °F - 21.2 °F 74% 30.05 in 10.0 mi Calm Calm - N/A   Scattered Clouds
10:55 PM 26.6 °F 20.0 °F 21.2 °F 80% 30.03 in 10.0 mi NW 5.8 mph - N/A   Mostly Cloudy
11:15 PM 28.4 °F 24.6 °F 21.2 °F 74% 30.03 in 10.0 mi WNW 3.5 mph - N/A   Mostly Cloudy
11:35 PM 24.8 °F 20.5 °F 23.0 °F 93% 30.02 in 10.0 mi WNW 3.5 mph - N/A   Scattered Clouds